Home   Weather   Schorndorf   Past weeks

Flag for Germany Past Weather in Schorndorf, Baden-Württemberg, Germany — Yesterday and Last 2 Weeks

Now
41 °F

Broken clouds.


Feels Like: 36 °F
Forecast: 34 / 39 °F
Wind: 8 mph from Southwest

Location: Stuttgart-Echterdingen

Current Time: Jan 19, 2018 at 2:47:11 pm

Latest Report: Jan 19, 2018 at 2:20 pm


Visibility: N/A

Pressure: 29.86 "Hg

Humidity: 76%

Dew Point: 34 °F

Location of SchorndorfLocation

Past Weather in Schorndorf — Graph

°F

Schorndorf Temperature Yesterday

Maximum temperature yesterday: 46 °F (at 1:50 pm)
Minimum temperature yesterday: 34 °F (at 12:20 am)
Average temperature yesterday: 40 °F

High & Low Weather Summary for the Past Weeks

 TemperatureHumidityPressure
High57 °F (Jan 6, 12:20 pm)100% (Jan 4, 1:50 pm)30.27 "Hg (Jan 4, 1:50 pm)
Low25 °F (Jan 14, 11:20 pm)55% (Jan 10, 1:20 pm)29.42 "Hg (Jan 17, 1:50 am)
Average40 °F88%29.87 "Hg
* Reported Jan 4 1:50 pm — Jan 19 1:20 pm, Schorndorf. Weather by CustomWeather, © 2018

Note: Actual official high and low records may vary slightly from our data, if they occured in-between our weather recording intervals... More about our weather records

Advertising

Schorndorf Weather History for the Previous 24 Hours

Scroll right to see more
 ConditionsComfort  
Time TempWeatherWind HumidityBarometerVisibility
1:20 pm
Fri, Jan 19
39 °FBroken clouds.13 mph75%29.86 "HgN/A
9:20 am37 °FScattered clouds.6 mph75%29.86 "HgN/A
5:50 am37 °FPassing clouds.13 mph87%29.74 "HgN/A
5:20 am37 °FPassing clouds.13 mph87%29.71 "HgN/A
4:50 am37 °FLight rain. Passing clouds.14 mph93%29.71 "HgN/A
4:20 am39 °FLight rain. Partly cloudy.10 mph87%29.71 "HgN/A
3:50 am39 °FLight rain. Passing clouds.15 mph87%29.68 "HgN/A
2:20 am41 °FLight rain. Passing clouds.10 mph93%29.65 "HgN/A
1:50 am41 °FLight rain. Partly cloudy.8 mph93%29.65 "HgN/A
1:20 am41 °FPassing clouds.7 mph93%29.65 "HgN/A
12:50 am41 °FPassing clouds.7 mph87%29.65 "HgN/A
12:20 am41 °FLight rain. Partly cloudy.7 mph93%29.65 "HgN/A
11:50 pm
Thu, Jan 18
41 °FPartly cloudy.7 mph87%29.65 "HgN/A
11:20 pm41 °FPassing clouds.6 mph87%29.68 "HgN/A
10:50 pm39 °FLight rain. Passing clouds.6 mph93%29.65 "HgN/A
10:20 pm39 °FPassing clouds.7 mph93%29.68 "HgN/A
9:50 pm41 °FPassing clouds.8 mph87%29.68 "HgN/A
9:20 pm41 °FPassing clouds.8 mph87%29.68 "HgN/A
8:50 pm41 °FPassing clouds.8 mph87%29.68 "HgN/A
8:20 pm41 °FPartly cloudy.13 mph87%29.68 "HgN/A
7:50 pm41 °FSprinkles. Partly cloudy.21 mph87%29.68 "HgN/A
7:20 pm43 °FPartly cloudy.18 mph87%29.65 "HgN/A
6:50 pm43 °FPartly cloudy.26 mph81%29.62 "HgN/A
6:20 pm43 °FRain showers. Partly cloudy.17 mph93%29.65 "HgN/A
5:50 pm43 °FRain showers. Partly cloudy.18 mph93%29.62 "HgN/A
5:20 pm43 °FSprinkles. Passing clouds.13 mph93%29.62 "HgN/A
4:50 pm45 °FSprinkles. Partly sunny.12 mph87%29.59 "HgN/A
4:20 pm45 °FRain showers. Partly sunny.18 mph87%29.59 "HgN/A
3:50 pm46 °FSprinkles. Partly sunny.17 mph82%29.59 "HgN/A
3:20 pm46 °FSprinkles. Partly sunny.20 mph82%29.56 "HgN/A
2:50 pm45 °FSprinkles. Partly sunny.18 mph87%29.56 "HgN/A
2:20 pm46 °FSprinkles. Partly sunny.25 mph76%29.56 "HgN/A
Weather by CustomWeather, © 2018

See weather overview